| time (UTC) | temp C | wind direction | speed KPH | gust KPH | rain 1hr cm | rain 24hr cm | rain mn cm | humidity % | barometer mb |
| 20260508053016 | 6 | 0.0 | 0.0 | 0.00 | 0.00 | 0.00 | 78 | 1011.3 | |
| 20260508050016 | 6 | 0.0 | 1.6 | 0.00 | 0.00 | 0.00 | 76 | 1011.4 | |
| 20260508043036 | 5 | 0.0 | 1.6 | 0.00 | 0.00 | 0.00 | 78 | 1011.4 | |
| 20260508040016 | 3 | 0.0 | 0.0 | 0.00 | 0.00 | 0.00 | 79 | 1011.3 | |
| 20260508033017 | 4 | 0.0 | 0.0 | 0.00 | 0.00 | 0.00 | 78 | 1011.2 | |
| 20260508030057 | 5 | 0.0 | 0.0 | 0.00 | 0.00 | 0.00 | 74 | 1011.3 | |
| 20260508023016 | 5 | 0.0 | 0.0 | 0.00 | 0.00 | 0.00 | 71 | 1011.3 | |
| 20260508020016 | 6 | 0.0 | 0.0 | 0.00 | 0.00 | 0.00 | 69 | 1011.2 | |
| 20260508013016 | 7 | 0.0 | 1.6 | 0.00 | 0.00 | 0.00 | 64 | 1011.0 | |
| 20260508010036 | 8 | 0.0 | 6.4 | 0.00 | 0.00 | 0.00 | 58 | 1010.9 | |
| 20260508003016 | 9 | 90 | 1.6 | 12.9 | 0.00 | 0.00 | 0.00 | 52 | 1010.8 |
| 20260508000017 | 10 | 90 | 4.8 | 16.1 | 0.00 | 0.00 | 0.00 | 49 | 1010.6 |
| 20260507233016 | 11 | 113 | 4.8 | 17.7 | 0.00 | 0.00 | 0.00 | 47 | 1010.5 |
| 20260507230036 | 11 | 113 | 6.4 | 20.9 | 0.00 | 0.00 | 0.00 | 45 | 1010.7 |
| 20260507223017 | 12 | 113 | 6.4 | 24.1 | 0.00 | 0.00 | 0.00 | 44 | 1010.7 |
| 20260507220016 | 12 | 113 | 6.4 | 20.9 | 0.00 | 0.00 | 0.00 | 48 | 1010.5 |
| 20260507213016 | 12 | 90 | 4.8 | 19.3 | 0.00 | 0.00 | 0.00 | 53 | 1010.5 |
| 20260507210037 | 10 | 90 | 4.8 | 17.7 | 0.00 | 0.00 | 0.00 | 56 | 1010.1 |
| 20260507203016 | 10 | 90 | 4.8 | 24.1 | 0.00 | 0.00 | 0.00 | 58 | 1010.0 |
| 20260507200016 | 12 | 135 | 4.8 | 17.7 | 0.00 | 0.00 | 0.00 | 53 | 1010.1 |
| 20260507193037 | 12 | 113 | 4.8 | 19.3 | 0.00 | 0.00 | 0.00 | 50 | 1010.4 |
| 20260507190037 | 12 | 135 | 4.8 | 14.5 | 0.00 | 0.00 | 0.00 | 49 | 1010.5 |
| 20260507183016 | 12 | 135 | 4.8 | 20.9 | 0.00 | 0.00 | 0.00 | 45 | 1010.7 |
| 20260507180036 | 12 | 113 | 4.8 | 16.1 | 0.00 | 0.00 | 0.00 | 48 | 1010.7 |
| 20260507173036 | 12 | 135 | 4.8 | 22.5 | 0.00 | 0.00 | 0.00 | 50 | 1010.9 |
| 20260507170017 | 12 | 135 | 4.8 | 19.3 | 0.00 | 0.00 | 0.00 | 54 | 1011.0 |
| 20260507163036 | 12 | 135 | 4.8 | 14.5 | 0.00 | 0.00 | 0.00 | 48 | 1011.0 |
| 20260507160017 | 12 | 113 | 3.2 | 17.7 | 0.00 | 0.00 | 0.00 | 53 | 1010.9 |
| 20260507153037 | 11 | 90 | 3.2 | 12.9 | 0.00 | 0.00 | 0.00 | 56 | 1011.0 |
| 20260507150037 | 11 | 113 | 3.2 | 14.5 | 0.00 | 0.00 | 0.00 | 55 | 1011.0 |
| 20260507143016 | 12 | 113 | 1.6 | 11.3 | 0.00 | 0.00 | 0.00 | 54 | 1011.1 |
| 20260507140037 | 11 | 113 | 1.6 | 9.7 | 0.00 | 0.00 | 0.00 | 66 | 1011.4 |
| 20260507133016 | 11 | 113 | 1.6 | 8.0 | 0.00 | 0.00 | 0.00 | 68 | 1011.6 |
| 20260507130016 | 10 | 0.0 | 4.8 | 0.00 | 0.00 | 0.00 | 69 | 1011.7 | |
| 20260507123016 | 8 | 0.0 | 6.4 | 0.00 | 0.00 | 0.00 | 74 | 1011.6 | |
| 20260507120016 | 6 | 0.0 | 3.2 | 0.00 | 0.00 | 0.00 | 81 | 1011.3 | |
| 20260507113016 | 5 | 0.0 | 1.6 | 0.00 | 0.00 | 0.00 | 86 | 1011.2 | |
| 20260507110057 | 5 | 0.0 | 0.0 | 0.00 | 0.00 | 0.00 | 88 | 1010.8 | |
| 20260507103016 | 4 | 0.0 | 0.0 | 0.00 | 0.00 | 0.00 | 89 | 1010.6 | |
| 20260507100016 | 3 | 0.0 | 0.0 | 0.00 | 0.00 | 0.00 | 89 | 1010.6 | |
| 20260507093036 | 4 | 0.0 | 1.6 | 0.00 | 0.03 | 0.00 | 88 | 1010.6 | |
| 20260507090016 | 4 | 0.0 | 1.6 | 0.00 | 0.08 | 0.00 | 89 | 1010.7 | |
| 20260507083016 | 3 | 0.0 | 1.6 | 0.00 | 0.10 | 0.00 | 90 | 1010.8 | |
| 20260507080016 | 3 | 0.0 | 1.6 | 0.00 | 0.15 | 0.00 | 90 | 1010.9 | |
| 20260507073016 | 3 | 0.0 | 0.0 | 0.00 | 0.15 | 0.00 | 89 | 1010.9 | |
| 20260507070016 | 3 | 0.0 | 1.6 | 0.00 | 0.15 | 0.00 | 89 | 1011.0 | |
| 20260507063016 | 3 | 0.0 | 1.6 | 0.00 | 0.18 | 0.00 | 89 | 1011.1 | |
| 20260507060036 | 4 | 0.0 | 1.6 | 0.00 | 0.20 | 0.00 | 88 | 1011.5 |